Madison, SD

4:33 PM CST on December 05, 2019 (GMT -0600)
Madison Municipal

Weather History for KMDS - October, 2019

Change the Weather History Date:

Tuesday, October 1, 2019

  Actual Average Record
Temperature  
Mean Temperature 46 °F -  
Max Temperature 51 °F 69 °F 75 °F (2010)
Min Temperature 42 °F 42 °F 41 °F (2018)
Degree Days  
Heating Degree Days 18    
Moisture  
Dew Point 46 °F    
Average Humidity 100    
Maximum Humidity 100    
Minimum Humidity 100    
Precipitation  
Precipitation 0.37 in - - ()
Sea Level Pressure  
Sea Level Pressure 30.02 in    
Wind  
Wind Speed 14 mph ()    
Max Wind Speed 21 mph    
Max Gust Speed 28 mph    
Visibility 9.5 miles    
Events Rain , Thunderstorm    
Averages and records for this station are not official NWS values.
T = Trace of Precipitation, MM = Missing Value Source: Averaged Metar Reports

Daily Weather History Graph

Daily Weather History Graph

Search for Another Location

Airport or City:

Astronomy

Oct. 01, 2019 Rise Set
Actual Time 7:25 AM CDT 7:09 PM CDT
Civil Twilight 6:57 AM CDT 7:38 PM CDT
Nautical Twilight 6:23 AM CDT 8:11 PM CDT
Astronomical Twilight 5:49 AM CDT 8:45 PM CDT
Moon 10:49 AM CDT (10/1) 9:16 PM CDT (10/1)
Length of Visible Light 12h 41m
Length of Day
11h 43m
Waxing Crescent, 12% of the Moon is Illuminated
Oct 1
Waxing Crescent
Oct 5
First Quarter
Oct 13
Full
Oct 21
Last Quarter
Oct 27
New

Hourly Weather History & Observations

Time (CDT) Temp. Windchill Dew Point Humidity Pressure Visibility Wind Dir Wind Speed Gust Speed Precip Events Conditions
12:15 AM 51.8 °F - 51.8 °F 100% 29.98 in 10.0 mi NNE 10.4 mph - N/A   Overcast
12:35 AM 51.8 °F - 51.8 °F 100% 30.01 in 10.0 mi NE 8.1 mph - N/A   Overcast
12:55 AM 51.8 °F - 51.8 °F 100% 29.98 in 10.0 mi NNE 11.5 mph - N/A   Overcast
1:00 AM 51.8 °F - 51.8 °F 100% 29.98 in 10.0 mi NNE 13.8 mph - N/A   Overcast
1:15 AM 51.8 °F - 51.8 °F 100% 29.99 in 10.0 mi North 10.4 mph - N/A   Overcast
1:20 AM 50.0 °F - 50.0 °F 100% 29.99 in 10.0 mi North 12.7 mph 17.3 mph N/A   Overcast
1:35 AM 50.0 °F - 50.0 °F 100% 29.97 in 8.0 mi North 17.3 mph 23.0 mph N/A Rain Light Rain
1:40 AM 50.0 °F - 50.0 °F 100% 29.97 in 3.0 mi North 20.7 mph 24.2 mph N/A Rain Light Rain
1:55 AM 50.0 °F - 50.0 °F 100% 29.98 in 10.0 mi North 17.3 mph 25.3 mph 0.02 in   Overcast
2:15 AM 50.0 °F - 50.0 °F 100% 29.96 in 10.0 mi NE 13.8 mph 21.9 mph N/A   Overcast
2:35 AM 48.2 °F - 48.2 °F 100% 29.98 in 10.0 mi NNE 13.8 mph 20.7 mph N/A   Overcast
2:40 AM 48.2 °F - 48.2 °F 100% 29.98 in 10.0 mi NNE 12.7 mph 20.7 mph N/A   Overcast
2:55 AM 48.2 °F - 48.2 °F 100% 29.98 in 10.0 mi NNE 17.3 mph 21.9 mph N/A   Overcast
3:00 AM 48.2 °F - 48.2 °F 100% 29.96 in 10.0 mi NNE 16.1 mph 24.2 mph N/A   Overcast
3:15 AM 48.2 °F - 48.2 °F 100% 29.98 in 10.0 mi NNE 15.0 mph 23.0 mph N/A   Overcast
3:20 AM 48.2 °F - 48.2 °F 100% 29.99 in 10.0 mi North 15.0 mph 23.0 mph N/A   Overcast
3:35 AM 48.2 °F - 48.2 °F 100% 29.99 in 10.0 mi NNE 12.7 mph 18.4 mph N/A   Overcast
3:55 AM 48.2 °F - 48.2 °F 100% 30.00 in 8.0 mi NNE 15.0 mph 23.0 mph 0.02 in Rain , Thunderstorm Light Rain
4:00 AM 48.2 °F - 48.2 °F 100% 29.99 in 8.0 mi NE 13.8 mph 19.6 mph 0.02 in Rain , Thunderstorm Light Rain
4:15 AM 48.2 °F - 48.2 °F 100% 29.99 in 10.0 mi NNE 17.3 mph 24.2 mph N/A Rain Light Rain
4:35 AM 46.4 °F 39.5 °F 46.4 °F 100% 29.99 in 10.0 mi NE 17.3 mph 24.2 mph N/A   Overcast
4:55 AM 46.4 °F 39.2 °F 46.4 °F 100% 29.99 in 10.0 mi NNE 18.4 mph 24.2 mph N/A   Overcast
5:00 AM 46.4 °F 38.7 °F 46.4 °F 100% 29.98 in 10.0 mi NNE 20.7 mph 27.6 mph N/A   Overcast
5:15 AM 46.4 °F 39.8 °F 46.4 °F 100% 29.99 in 10.0 mi NE 16.1 mph 23.0 mph N/A   Overcast
5:20 AM 46.4 °F 39.8 °F 46.4 °F 100% 30.00 in 10.0 mi NNE 16.1 mph 23.0 mph N/A   Overcast
5:35 AM 46.4 °F 39.8 °F 46.4 °F 100% 30.00 in 10.0 mi NE 16.1 mph 20.7 mph N/A   Overcast
6:15 AM 46.4 °F - 46.4 °F 100% 30.01 in 10.0 mi North - - N/A   Overcast
6:20 AM 46.4 °F 40.1 °F 46.4 °F 100% 30.03 in 10.0 mi NNE 15.0 mph - N/A   Overcast
6:35 AM 46.4 °F 39.5 °F 46.4 °F 100% 30.01 in 10.0 mi NNE 17.3 mph - N/A   Overcast
6:55 AM 46.4 °F 40.1 °F 46.4 °F 100% 30.02 in 10.0 mi NNE 15.0 mph 24.2 mph N/A Rain Light Rain
7:15 AM 46.4 °F 39.2 °F 46.4 °F 100% 30.01 in 10.0 mi NNE 18.4 mph 25.3 mph N/A Rain Light Rain
7:20 AM 44.6 °F 37.8 °F 44.6 °F 100% 30.01 in 10.0 mi NE 15.0 mph 25.3 mph N/A Rain Light Rain
7:35 AM 44.6 °F 36.6 °F 44.6 °F 100% 30.02 in 10.0 mi NE 19.6 mph 24.2 mph N/A   Overcast
7:55 AM 44.6 °F 38.1 °F 44.6 °F 100% 30.03 in 10.0 mi NNE 13.8 mph 20.7 mph N/A Rain Light Rain
8:15 AM 44.6 °F 38.1 °F 44.6 °F 100% 30.03 in 10.0 mi NE 13.8 mph 19.6 mph N/A   Overcast
8:35 AM 44.6 °F 37.4 °F 44.6 °F 100% 30.03 in 10.0 mi NE 16.1 mph 21.9 mph N/A   Overcast
8:55 AM 44.6 °F 38.1 °F 44.6 °F 100% 30.03 in 10.0 mi NE 13.8 mph 20.7 mph N/A Rain Light Rain
9:00 AM 44.6 °F 37.8 °F 44.6 °F 100% 30.03 in 10.0 mi NE 15.0 mph 20.7 mph N/A Rain Light Rain
9:15 AM 44.6 °F 37.2 °F 44.6 °F 100% 30.02 in 10.0 mi NE 17.3 mph 21.9 mph N/A Rain Light Rain
9:35 AM 44.6 °F 38.4 °F 44.6 °F 100% 30.03 in 3.0 mi NE 12.7 mph 25.3 mph 0.02 in Rain Light Rain
9:55 AM 44.6 °F 37.4 °F 44.6 °F 100% 30.02 in 5.0 mi NE 16.1 mph 20.7 mph 0.15 in Rain Light Rain
10:00 AM 44.6 °F 37.4 °F 44.6 °F 100% 30.02 in 10.0 mi NE 16.1 mph 23.0 mph 0.15 in   Mostly Cloudy
10:15 AM 44.6 °F 37.8 °F 44.6 °F 100% 30.02 in 10.0 mi NE 15.0 mph 21.9 mph N/A Rain Light Rain
10:20 AM 44.6 °F 37.4 °F 44.6 °F 100% 30.02 in 10.0 mi NE 16.1 mph 21.9 mph N/A Rain Light Rain
10:55 AM 44.6 °F 37.4 °F 44.6 °F 100% 30.02 in 10.0 mi NNE 16.1 mph 24.2 mph 0.01 in   Overcast
11:00 AM 46.4 °F 39.2 °F 46.4 °F 100% 30.02 in 10.0 mi NNE 18.4 mph 24.2 mph 0.01 in   Overcast
11:15 AM 46.4 °F 40.1 °F 46.4 °F 100% 30.02 in 10.0 mi NE 15.0 mph 24.2 mph N/A   Mostly Cloudy
11:20 AM 46.4 °F 39.5 °F 46.4 °F 100% 30.02 in 10.0 mi NE 17.3 mph 24.2 mph N/A   Mostly Cloudy
11:35 AM 46.4 °F 39.5 °F 46.4 °F 100% 30.04 in 10.0 mi NE 17.3 mph 23.0 mph N/A   Mostly Cloudy
11:55 AM 44.6 °F 37.8 °F 44.6 °F 100% 30.05 in 10.0 mi NE 15.0 mph 21.9 mph N/A   Overcast
12:15 PM 44.6 °F 37.8 °F 44.6 °F 100% 30.04 in 10.0 mi NE 15.0 mph 21.9 mph N/A   Overcast
12:20 PM 44.6 °F 37.2 °F 44.6 °F 100% 30.04 in 10.0 mi NE 17.3 mph 23.0 mph N/A   Overcast
12:35 PM 44.6 °F 38.1 °F 44.6 °F 100% 30.04 in 10.0 mi NE 13.8 mph 24.2 mph N/A   Overcast
12:40 PM 44.6 °F 38.4 °F 44.6 °F 100% 30.05 in 10.0 mi NNE 12.7 mph 20.7 mph N/A   Overcast
12:55 PM 44.6 °F 36.9 °F 44.6 °F 100% 30.03 in 10.0 mi NNE 18.4 mph 24.2 mph N/A Rain Light Rain
1:15 PM 44.6 °F 38.4 °F 44.6 °F 100% 30.06 in 10.0 mi NNE 12.7 mph 21.9 mph N/A Rain Light Rain
1:20 PM 44.6 °F 38.1 °F 44.6 °F 100% 30.06 in 10.0 mi NNE 13.8 mph 21.9 mph N/A Rain Light Rain
1:35 PM 44.6 °F 37.8 °F 44.6 °F 100% 30.05 in 10.0 mi NE 15.0 mph - N/A Rain Light Rain
1:55 PM 44.6 °F 36.9 °F 44.6 °F 100% 30.03 in 10.0 mi NE 18.4 mph 23.0 mph N/A Rain Light Rain
2:00 PM 44.6 °F 37.4 °F 44.6 °F 100% 30.04 in 10.0 mi NE 16.1 mph 23.0 mph N/A Rain Light Rain
2:15 PM 46.4 °F 39.0 °F 46.4 °F 100% 30.02 in 10.0 mi NE 19.6 mph 24.2 mph N/A   Mostly Cloudy
2:20 PM 46.4 °F 39.8 °F 46.4 °F 100% 30.02 in 10.0 mi NE 16.1 mph 23.0 mph N/A   Overcast
2:35 PM 46.4 °F 39.5 °F 46.4 °F 100% 30.01 in 10.0 mi NNE 17.3 mph 21.9 mph N/A   Overcast
2:40 PM 46.4 °F 39.8 °F 46.4 °F 100% 30.01 in 10.0 mi NNE 16.1 mph 23.0 mph N/A   Overcast
2:55 PM 46.4 °F 39.2 °F 46.4 °F 100% 30.02 in 10.0 mi NNE 18.4 mph 21.9 mph N/A   Overcast
3:15 PM 46.4 °F 39.8 °F 46.4 °F 100% 30.02 in 10.0 mi NNE 16.1 mph 23.0 mph N/A   Overcast
3:35 PM 46.4 °F 39.2 °F 46.4 °F 100% 30.01 in 10.0 mi NNE 18.4 mph 25.3 mph N/A   Mostly Cloudy
3:40 PM 46.4 °F 39.5 °F 46.4 °F 100% 30.01 in 10.0 mi NE 17.3 mph 25.3 mph N/A   Mostly Cloudy
3:55 PM 46.4 °F 39.2 °F 46.4 °F 100% 30.00 in 10.0 mi NNE 18.4 mph 21.9 mph N/A   Mostly Cloudy
4:15 PM 46.4 °F 39.5 °F 46.4 °F 100% 29.98 in 10.0 mi NNE 17.3 mph 24.2 mph N/A   Scattered Clouds
4:20 PM 46.4 °F 39.2 °F 46.4 °F 100% 29.99 in 10.0 mi NE 18.4 mph 27.6 mph N/A   Scattered Clouds
4:35 PM 46.4 °F 39.5 °F 46.4 °F 100% 29.98 in 10.0 mi NNE 17.3 mph 24.2 mph N/A   Scattered Clouds
4:55 PM 46.4 °F 40.4 °F 46.4 °F 100% 29.98 in 10.0 mi NNE 13.8 mph 24.2 mph N/A   Mostly Cloudy
5:15 PM 46.4 °F 39.2 °F 46.4 °F 100% 29.99 in 10.0 mi NNE 18.4 mph 25.3 mph N/A   Overcast
5:20 PM 46.4 °F 39.2 °F 46.4 °F 100% 29.99 in 10.0 mi NNE 18.4 mph 24.2 mph N/A   Overcast
5:35 PM 46.4 °F 39.2 °F 46.4 °F 100% 29.99 in 10.0 mi NE 18.4 mph 25.3 mph N/A   Overcast
5:55 PM 46.4 °F 40.1 °F 46.4 °F 100% 30.01 in 10.0 mi NNE 15.0 mph 21.9 mph N/A   Overcast
6:00 PM 46.4 °F 39.8 °F 46.4 °F 100% 30.02 in 5.0 mi NNE 16.1 mph 24.2 mph N/A Rain Light Rain
6:15 PM 46.4 °F 39.8 °F 46.4 °F 100% 30.02 in 2.5 mi NE 16.1 mph 20.7 mph N/A   Mostly Cloudy
6:35 PM 46.4 °F 40.4 °F 46.4 °F 100% 30.01 in 4.0 mi NE 13.8 mph 19.6 mph N/A Rain Light Rain
6:40 PM 46.4 °F 40.4 °F 46.4 °F 100% 30.01 in 5.0 mi NE 13.8 mph 19.6 mph N/A Rain Light Rain
6:55 PM 46.4 °F 40.4 °F 46.4 °F 100% 30.02 in 9.0 mi NE 13.8 mph 20.7 mph N/A   Overcast
7:00 PM 46.4 °F 40.7 °F 46.4 °F 100% 30.02 in 9.0 mi NNE 12.7 mph - N/A   Overcast
7:15 PM 46.4 °F 39.8 °F 46.4 °F 100% 30.02 in 10.0 mi NNE 16.1 mph - N/A   Overcast
7:35 PM 46.4 °F 40.4 °F 46.4 °F 100% 30.03 in 10.0 mi NNE 13.8 mph 19.6 mph N/A   Overcast
7:55 PM 46.4 °F 41.1 °F 46.4 °F 100% 30.03 in 10.0 mi NNE 11.5 mph 20.7 mph N/A   Overcast
8:00 PM 46.4 °F 40.7 °F 46.4 °F 100% 30.03 in 10.0 mi NNE 12.7 mph 20.7 mph N/A   Overcast
8:15 PM 44.6 °F 38.4 °F 44.6 °F 100% 30.04 in 10.0 mi NNE 12.7 mph 20.7 mph N/A   Overcast
8:20 PM 44.6 °F 38.1 °F 44.6 °F 100% 30.04 in 10.0 mi NNE 13.8 mph 18.4 mph N/A   Overcast
8:35 PM 44.6 °F 38.1 °F 44.6 °F 100% 30.04 in 10.0 mi NNE 13.8 mph 18.4 mph N/A   Overcast
8:40 PM 44.6 °F 38.1 °F 44.6 °F 100% 30.04 in 10.0 mi NNE 13.8 mph 18.4 mph N/A   Overcast
8:55 PM 44.6 °F 38.8 °F 44.6 °F 100% 30.05 in 10.0 mi NNE 11.5 mph - N/A   Mostly Cloudy
9:15 PM 46.4 °F 40.4 °F 46.4 °F 100% 30.05 in 10.0 mi NNE 13.8 mph 19.6 mph N/A   Overcast
9:20 PM 46.4 °F 40.1 °F 46.4 °F 100% 30.05 in 10.0 mi NNE 15.0 mph 19.6 mph N/A   Overcast
9:35 PM 46.4 °F 39.5 °F 46.4 °F 100% 30.05 in 10.0 mi NNE 17.3 mph 24.2 mph N/A   Overcast
9:55 PM 44.6 °F 37.8 °F 44.6 °F 100% 30.05 in 10.0 mi NE 15.0 mph 21.9 mph N/A   Overcast
10:15 PM 44.6 °F 37.8 °F 44.6 °F 100% 30.05 in 10.0 mi NNE 15.0 mph 19.6 mph N/A   Overcast
10:35 PM 44.6 °F 37.8 °F 44.6 °F 100% 30.04 in 10.0 mi NNE 15.0 mph - N/A   Overcast
10:40 PM 44.6 °F 38.4 °F 44.6 °F 100% 30.04 in 10.0 mi NNE 12.7 mph - N/A   Overcast
10:55 PM 44.6 °F 38.4 °F 44.6 °F 100% 30.04 in 10.0 mi NNE 12.7 mph 20.7 mph N/A   Overcast
11:00 PM 44.6 °F 37.8 °F 44.6 °F 100% 30.05 in 10.0 mi NNE 15.0 mph 20.7 mph N/A   Overcast
11:15 PM 44.6 °F 37.2 °F 44.6 °F 100% 30.04 in 10.0 mi NNE 17.3 mph 23.0 mph N/A   Overcast
11:35 PM 42.8 °F 35.4 °F 42.8 °F 100% 30.04 in 10.0 mi NNE 15.0 mph 25.3 mph N/A   Overcast
11:55 PM 42.8 °F 34.3 °F 42.8 °F 100% 30.06 in 10.0 mi NNE 19.6 mph - N/A   Overcast